Location: Unspecified
(0.0000°N, 0.0000°E)
Time: 16:30:04
(UTC+00:00)

Envisat - Pass Details

Date: 08 May 2021
Orbit: 764 x 766 km, 98.1° (Epoch: 14 May)

Event Time Altitude Azimuth Distance (km) Brightness Sun altitude
Rises 04:17:58 0° 37° (NE) 3,215 7.1 -23.5°
Reaches altitude 10° 04:20:43 10° 51° (NE) 2,292 6.4 -22.8°
Maximum altitude 04:24:37 23° 102° (ESE) 1,589 5.3 -21.9°
Drops below altitude 10° 04:28:33 10° 153° (SSE) 2,300 5.6 -21.0°
Sets 04:31:17 0° 168° (SSE) 3,229 6.2 -20.3°
